WBANNO,USDM_WEEK,LONGITUDE,LATITUDE,SMVWC_5_CM_MEAN,SMANOM_5_CM_MEAN,SMPERC_5_CM_30COUNTS,SMPERC_5_CM_70COUNTS,SMVWC_10_CM_MEAN,SMANOM_10_CM_MEAN,SMPERC_10_CM_30COUNTS,SMPERC_10_CM_70COUNTS,SMVWC_20_CM_MEAN,SMANOM_20_CM_MEAN,SMPERC_20_CM_30COUNTS,SMPERC_20_CM_70COUNTS,SMVWC_50_CM_MEAN,SMANOM_50_CM_MEAN,SMPERC_50_CM_30COUNTS,SMPERC_50_CM_70COUNTS,SMVWC_100_CM_MEAN,SMANOM_100_CM_MEAN,SMPERC_100_CM_30COUNTS,SMPERC_100_CM_70COUNTS,SMVWC_TOP_CM_MEAN,SMANOM_TOP_CM_MEAN,SMPERC_TOP_CM_30COUNTS,SMPERC_TOP_CM_70COUNTS,SMVWC_COLUMN_CM_MEAN,SMANOM_COLUMN_CM_MEAN,SMPERC_COLUMN_CM_30COUNTS,SMPERC_COLUMN_CM_70COUNTS
04222,20110719,-122.61,40.65,,,,,,,,,,,,,,,,,,,,,,,,,,,,
04222,20110720,-122.61,40.65,,,,,,,,,,,,,,,,,,,,,,,,,,,,
04222,20110721,-122.61,40.65,,,,,,,,,,,,,,,,,,,,,,,,,,,,
04222,20110722,-122.61,40.65,,,,,,,,,,,,,,,,,,,,,,,,,,,,
04222,20110723,-122.61,40.65,,,,,,,,,,,,,,,,,,,,,,,,,,,,
04222,20110724,-122.61,40.65,,,,,,,,,,,,,,,,,,,,,,,,,,,,
04222,20110725,-122.61,40.65,0.057,-0.03,0.102,0.127,0.044,-0.3,0.242,0,0.042,-1.43,1,0,0.029,-0.75,1,0,0.111,0.08,0,0.716,0.05,-0.21,0.057,0,0.056,-0.46,0.98,0
04222,20110726,-122.61,40.65,0.057,0.02,0.036,0.133,0.045,-0.28,0.217,0,0.042,-1.4,1,0,0.029,-0.7,1,0,0.111,0.1,0,0.816,0.051,-0.19,0.024,0,0.057,-0.4,0.955,0
04222,20110727,-122.61,40.65,0.058,0.07,0,0.139,0.046,-0.27,0.217,0,0.043,-1.34,1,0,0.03,-0.63,1,0,0.112,0.12,0,0.95,0.052,-0.16,0,0,0.058,-0.33,0.93,0
04222,20110728,-122.61,40.65,0.058,0.08,0,0.137,0.046,-0.26,0.256,0,0.044,-1.26,1,0,0.031,-0.58,1,0,0.112,0.13,0,0.988,0.052,-0.16,0,0,0.058,-0.28,0.883,0
04222,20110729,-122.61,40.65,0.058,0.07,0,0.119,0.047,-0.24,0.315,0,0.044,-1.17,1,0,0.031,-0.54,1,0,0.112,0.14,0,0.988,0.052,-0.16,0,0,0.058,-0.25,0.779,0
04222,20110730,-122.61,40.65,0.057,0.03,0,0.083,0.047,-0.23,0.369,0,0.045,-1.09,1,0,0.032,-0.5,1,0,0.113,0.14,0,0.988,0.052,-0.17,0,0,0.059,-0.23,0.689,0
04222,20110731,-122.61,40.65,0.055,-0.01,0,0.042,0.047,-0.22,0.393,0,0.045,-1.01,1,0,0.032,-0.48,1,0,0.113,0.15,0,0.988,0.051,-0.18,0,0,0.058,-0.22,0.618,0
04222,20110801,-122.61,40.65,0.054,-0.06,0,0.018,0.047,-0.2,0.381,0,0.046,-0.93,1,0,0.032,-0.46,1,0,0.113,0.16,0,0.994,0.05,-0.2,0,0,0.058,-0.21,0.53,0
04222,20110802,-122.61,40.65,0.052,-0.11,0,0.006,0.047,-0.17,0.339,0,0.046,-0.85,1,0,0.033,-0.43,1,0,0.113,0.17,0,0.994,0.05,-0.22,0,0,0.058,-0.2,0.497,0
04222,20110803,-122.61,40.65,0.05,-0.17,0.006,0,0.047,-0.15,0.28,0,0.046,-0.79,1,0,0.033,-0.41,1,0,0.113,0.17,0,1,0.049,-0.23,0,0,0.058,-0.2,0.512,0
04222,20110804,-122.61,40.65,0.049,-0.23,0.03,0,0.047,-0.13,0.208,0,0.047,-0.76,1,0,0.033,-0.39,1,0,0.114,0.18,0,1,0.048,-0.26,0,0,0.058,-0.21,0.56,0
04222,20110805,-122.61,40.65,0.047,-0.29,0.137,0,0.047,-0.11,0.131,0,0.047,-0.74,1,0,0.033,-0.38,1,0,0.114,0.18,0,1,0.047,-0.28,0,0,0.058,-0.22,0.661,0
04222,20110806,-122.61,40.65,0.046,-0.35,0.262,0,0.046,-0.1,0.065,0,0.047,-0.73,1,0,0.033,-0.36,1,0,0.113,0.18,0,1,0.046,-0.3,0,0,0.057,-0.23,0.75,0
04222,20110807,-122.61,40.65,0.045,-0.4,0.381,0,0.046,-0.09,0.03,0,0.047,-0.73,1,0,0.034,-0.35,1,0,0.113,0.17,0,1,0.045,-0.33,0,0,0.057,-0.25,0.821,0
04222,20110808,-122.61,40.65,0.043,-0.44,0.524,0,0.045,-0.09,0.006,0,0.047,-0.72,1,0,0.034,-0.34,1,0,0.113,0.16,0,1,0.044,-0.35,0.006,0,0.056,-0.26,0.929,0
04222,20110809,-122.61,40.65,0.042,-0.48,0.655,0,0.045,-0.09,0,0,0.047,-0.72,1,0,0.034,-0.35,1,0,0.112,0.15,0,0.994,0.044,-0.36,0.012,0,0.056,-0.28,0.988,0
04222,20110810,-122.61,40.65,0.042,-0.51,0.786,0,0.045,-0.09,0,0,0.047,-0.72,1,0,0.033,-0.35,1,0,0.112,0.14,0,0.97,0.043,-0.38,0.018,0,0.056,-0.29,1,0
04222,20110811,-122.61,40.65,0.041,-0.53,0.887,0,0.044,-0.1,0,0,0.047,-0.72,1,0,0.033,-0.34,1,0,0.112,0.13,0,0.923,0.043,-0.39,0.024,0,0.055,-0.3,1,0
04222,20110812,-122.61,40.65,0.04,-0.55,0.923,0,0.044,-0.1,0,0,0.047,-0.71,1,0,0.034,-0.34,1,0,0.111,0.11,0,0.857,0.042,-0.39,0.03,0,0.055,-0.3,1,0
04222,20110813,-122.61,40.65,0.04,-0.57,0.94,0,0.044,-0.1,0,0,0.047,-0.7,1,0,0.034,-0.32,1,0,0.111,0.1,0,0.81,0.042,-0.4,0.036,0,0.055,-0.3,1,0
04222,20110814,-122.61,40.65,0.039,-0.59,0.964,0,0.044,-0.11,0,0,0.047,-0.7,1,0,0.034,-0.32,1,0,0.11,0.1,0,0.702,0.042,-0.4,0.071,0,0.055,-0.3,1,0
04222,20110815,-122.61,40.65,0.039,-0.61,0.964,0,0.044,-0.11,0,0,0.047,-0.7,1,0,0.034,-0.31,1,0,0.11,0.09,0,0.583,0.041,-0.41,0.143,0,0.055,-0.3,1,0
04222,20110816,-122.61,40.65,0.038,-0.63,0.976,0,0.043,-0.11,0,0,0.047,-0.69,1,0,0.034,-0.3,1,0,0.109,0.08,0,0.452,0.041,-0.42,0.232,0,0.054,-0.3,1,0
04222,20110817,-122.61,40.65,0.038,-0.66,0.982,0,0.043,-0.11,0.006,0,0.047,-0.68,1,0,0.034,-0.3,1,0,0.109,0.06,0,0.333,0.04,-0.42,0.333,0,0.054,-0.31,1,0
04222,20110818,-122.61,40.65,0.037,-0.69,1,0,0.043,-0.12,0.024,0,0.047,-0.67,1,0,0.034,-0.29,0.994,0,0.108,0.04,0,0.238,0.04,-0.43,0.435,0,0.054,-0.32,1,0
04222,20110819,-122.61,40.65,0.036,-0.71,1,0,0.043,-0.12,0.071,0,0.047,-0.67,1,0,0.034,-0.29,0.994,0,0.108,0.03,0,0.161,0.04,-0.44,0.542,0,0.053,-0.34,1,0
04222,20110820,-122.61,40.65,0.036,-0.73,1,0,0.042,-0.12,0.137,0,0.047,-0.66,1,0,0.034,-0.29,0.994,0,0.107,0.01,0,0.065,0.039,-0.45,0.661,0,0.053,-0.35,1,0
04222,20110821,-122.61,40.65,0.035,-0.75,1,0,0.042,-0.13,0.232,0,0.046,-0.65,1,0,0.033,-0.29,0.988,0,0.106,-0.01,0,0.03,0.039,-0.46,0.756,0,0.053,-0.37,1,0
04222,20110822,-122.61,40.65,0.035,-0.77,1,0,0.042,-0.13,0.327,0,0.046,-0.64,1,0,0.033,-0.3,0.988,0,0.105,-0.02,0,0.006,0.038,-0.47,0.821,0,0.052,-0.38,1,0
04222,20110823,-122.61,40.65,0.034,-0.79,1,0,0.041,-0.13,0.417,0,0.046,-0.64,1,0,0.033,-0.29,0.988,0,0.105,-0.03,0,0,0.038,-0.48,0.869,0,0.052,-0.39,1,0
04222,20110824,-122.61,40.65,0.034,-0.8,1,0,0.041,-0.14,0.5,0,0.046,-0.64,1,0,0.033,-0.28,0.976,0,0.104,-0.05,0,0,0.038,-0.48,0.905,0,0.052,-0.4,1,0
04222,20110825,-122.61,40.65,0.034,-0.81,1,0,0.041,-0.14,0.548,0,0.046,-0.63,1,0,0.033,-0.28,0.97,0,0.104,-0.05,0,0,0.037,-0.48,0.935,0,0.052,-0.41,1,0
04222,20110826,-122.61,40.65,0.033,-0.82,1,0,0.04,-0.13,0.542,0,0.046,-0.63,1,0,0.033,-0.27,0.952,0,0.104,-0.06,0,0,0.037,-0.47,0.946,0,0.051,-0.41,1,0
04222,20110827,-122.61,40.65,0.033,-0.83,1,0,0.04,-0.13,0.488,0,0.045,-0.63,1,0,0.033,-0.26,0.935,0,0.103,-0.07,0,0,0.037,-0.46,0.923,0,0.051,-0.42,1,0
04222,20110828,-122.61,40.65,0.033,-0.84,1,0,0.04,-0.12,0.393,0,0.045,-0.63,1,0,0.033,-0.25,0.905,0,0.103,-0.08,0,0,0.036,-0.44,0.869,0,0.051,-0.42,1,0
04222,20110829,-122.61,40.65,0.033,-0.84,1,0,0.04,-0.11,0.298,0,0.045,-0.63,1,0,0.033,-0.23,0.881,0,0.103,-0.08,0,0,0.036,-0.42,0.798,0,0.051,-0.42,1,0
04222,20110830,-122.61,40.65,0.032,-0.83,1,0,0.04,-0.1,0.208,0,0.045,-0.62,1,0,0.033,-0.22,0.845,0,0.102,-0.09,0,0,0.036,-0.39,0.726,0,0.051,-0.41,1,0
04222,20110831,-122.61,40.65,0.032,-0.82,1,0,0.039,-0.08,0.131,0,0.045,-0.62,1,0,0.033,-0.21,0.81,0,0.102,-0.09,0,0,0.036,-0.37,0.643,0,0.05,-0.41,1,0
04222,20110901,-122.61,40.65,0.032,-0.81,1,0,0.039,-0.08,0.083,0,0.045,-0.62,1,0,0.034,-0.2,0.738,0,0.102,-0.09,0,0,0.036,-0.35,0.571,0,0.05,-0.41,1,0
04222,20110902,-122.61,40.65,0.032,-0.81,1,0,0.039,-0.07,0.054,0,0.045,-0.62,1,0,0.034,-0.2,0.726,0,0.101,-0.1,0,0,0.035,-0.34,0.524,0,0.05,-0.41,1,0
04222,20110903,-122.61,40.65,0.031,-0.81,1,0,0.039,-0.07,0.054,0,0.045,-0.62,1,0,0.034,-0.19,0.738,0,0.101,-0.1,0,0,0.035,-0.34,0.488,0,0.05,-0.41,1,0
04222,20110904,-122.61,40.65,0.031,-0.8,1,0,0.039,-0.07,0.054,0,0.044,-0.63,1,0,0.033,-0.19,0.744,0,0.1,-0.1,0,0,0.035,-0.34,0.435,0,0.05,-0.4,1,0
04222,20110905,-122.61,40.65,0.031,-0.79,1,0,0.039,-0.06,0.054,0,0.044,-0.63,1,0,0.033,-0.19,0.744,0,0.1,-0.1,0,0,0.035,-0.33,0.375,0,0.049,-0.4,1,0
04222,20110906,-122.61,40.65,0.03,-0.79,1,0,0.038,-0.06,0.054,0,0.044,-0.63,1,0,0.033,-0.19,0.756,0,0.1,-0.1,0,0,0.034,-0.33,0.31,0,0.049,-0.4,1,0
04222,20110907,-122.61,40.65,0.03,-0.79,1,0,0.038,-0.06,0.042,0,0.043,-0.64,1,0,0.033,-0.19,0.756,0,0.099,-0.1,0,0,0.034,-0.33,0.274,0,0.049,-0.41,1,0
04222,20110908,-122.61,40.65,0.03,-0.78,1,0,0.038,-0.06,0.042,0,0.043,-0.64,1,0,0.033,-0.19,0.75,0,0.099,-0.07,0,0,0.034,-0.34,0.274,0,0.049,,,
04222,20110909,-122.61,40.65,0.03,-0.77,1,0,0.038,-0.07,0.048,0,0.043,-0.64,1,0,0.033,-0.18,0.696,0,0.098,,,,0.034,-0.35,0.256,0,0.048,,,
04222,20110910,-122.61,40.65,0.03,-0.76,1,0,0.038,-0.07,0.054,0,0.043,-0.64,1,0,0.033,-0.18,0.643,0,0.098,,,,0.034,-0.36,0.25,0,0.048,,,
04222,20110911,-122.61,40.65,0.03,-0.75,1,0,0.038,-0.09,0.089,0,0.043,-0.63,1,0,0.033,-0.17,0.571,0,0.098,,,,0.034,-0.37,0.298,0,0.048,,,
04222,20110912,-122.61,40.65,0.029,-0.74,1,0,0.038,-0.12,0.143,0,0.043,-0.63,1,0,0.033,-0.17,0.524,0,0.098,,,,0.034,-0.4,0.399,0,0.048,,,
04222,20110913,-122.61,40.65,0.029,-0.73,1,0,0.038,-0.16,0.196,0,0.043,-0.64,1,0,0.033,-0.17,0.488,0,0.097,,,,0.033,-0.42,0.518,0,0.048,,,
04222,20110914,-122.61,40.65,0.029,-0.72,1,0,0.037,-0.19,0.256,0,0.043,-0.64,1,0,0.033,-0.17,0.458,0,0.097,,,,0.033,-0.44,0.619,0,0.048,,,
04222,20110915,-122.61,40.65,0.029,-0.71,1,0,0.037,-0.22,0.298,0,0.043,-0.63,1,0,0.033,-0.17,0.458,0,0.097,,,,0.033,-0.46,0.679,0,0.048,,,
04222,20110916,-122.61,40.65,0.029,-0.7,1,0,0.037,-0.25,0.339,0,0.043,-0.64,1,0,0.032,-0.18,0.446,0,0.097,,,,0.033,-0.47,0.762,0,0.048,,,
04222,20110917,-122.61,40.65,0.029,-0.7,1,0,0.037,-0.29,0.387,0,0.043,-0.64,1,0,0.032,-0.18,0.435,0,0.096,,,,0.033,-0.49,0.845,0,0.047,,,
04222,20110918,-122.61,40.65,0.028,-0.7,1,0,0.036,-0.31,0.417,0,0.042,-0.66,1,0,0.032,-0.19,0.423,0,0.096,,,,0.032,-0.51,0.917,0,0.047,,,
04222,20110919,-122.61,40.65,0.028,-0.7,1,0,0.036,-0.33,0.435,0,0.042,-0.67,1,0,0.032,-0.19,0.399,0,0.096,,,,0.032,-0.53,0.946,0,0.047,,,
04222,20110920,-122.61,40.65,0.028,-0.69,1,0,0.036,-0.34,0.452,0,0.042,-0.68,1,0,0.032,-0.18,0.339,0,0.096,,,,0.032,-0.54,0.964,0,0.047,,,
04222,20110921,-122.61,40.65,0.028,-0.7,1,0,0.035,-0.35,0.482,0,0.042,-0.7,1,0,0.032,-0.19,0.304,0,0.095,,,,0.032,-0.55,0.982,0,0.046,,,
04222,20110922,-122.61,40.65,0.028,-0.7,1,0,0.035,-0.38,0.536,0,0.041,-0.72,1,0,0.032,-0.2,0.327,0,0.095,,,,0.032,-0.57,1,0,0.046,,,
04222,20110923,-122.61,40.65,0.028,-0.7,1,0,0.035,-0.41,0.613,0,0.041,-0.74,1,0,0.032,-0.22,0.405,0,0.095,,,,0.031,-0.58,1,0,0.046,,,
04222,20110924,-122.61,40.65,0.028,-0.69,1,0,0.035,-0.43,0.655,0,0.041,-0.78,1,0,0.032,-0.24,0.446,0,0.095,,,,0.032,-0.59,1,0,0.046,,,
04222,20110925,-122.61,40.65,0.028,-0.69,1,0,0.035,-0.47,0.696,0,0.041,-0.81,1,0,0.032,-0.29,0.56,0,0.095,,,,0.032,-0.6,1,0,0.046,,,
04222,20110926,-122.61,40.65,0.027,-0.69,1,0,0.035,-0.51,0.75,0,0.041,-0.84,1,0,0.032,-0.34,0.655,0,0.094,,,,0.031,-0.62,1,0,0.046,,,
04222,20110927,-122.61,40.65,0.027,-0.69,1,0,0.034,-0.55,0.821,0,0.041,-0.88,1,0,0.032,-0.39,0.774,0,0.094,,,,0.031,-0.64,1,0,0.046,,,
04222,20110928,-122.61,40.65,0.027,-0.69,1,0,0.034,-0.58,0.869,0,0.04,-0.93,1,0,0.032,-0.44,0.887,0,0.094,,,,0.03,-0.65,1,0,0.045,,,
04222,20110929,-122.61,40.65,0.026,-0.69,1,0,0.034,-0.61,0.875,0,0.04,-0.97,1,0,0.032,-0.48,0.946,0,0.094,,,,0.03,-0.66,1,0,0.045,,,
04222,20110930,-122.61,40.65,0.026,-0.69,1,0,0.033,-0.62,0.875,0,0.04,-1,1,0,0.032,-0.5,0.958,0,0.094,,,,0.03,-0.67,1,0,0.045,,,
04222,20111001,-122.61,40.65,0.026,-0.7,1,0,0.033,-0.64,0.911,0,0.04,-1.02,1,0,0.031,-0.52,0.988,0,0.094,,,,0.03,-0.68,1,0,0.045,,,
04222,20111002,-122.61,40.65,0.026,-0.72,1,0,0.033,-0.65,0.946,0,0.039,-1.03,1,0,0.031,-0.52,0.988,0,0.094,,,,0.029,-0.68,1,0,0.044,,,
04222,20111003,-122.61,40.65,0.025,-0.74,1,0,0.032,-0.65,0.964,0,0.039,-1.05,1,0,0.031,-0.52,0.988,0,0.093,,,,0.029,-0.69,1,0,0.044,,,
04222,20111004,-122.61,40.65,0.025,-0.77,1,0,0.032,-0.66,0.964,0,0.039,-1.05,1,0,0.03,-0.52,0.988,0,0.093,,,,0.028,-0.7,1,0,0.044,,,
04222,20111005,-122.61,40.65,0.038,-0.51,0.946,0.048,0.043,-0.54,0.917,0.048,0.044,-0.91,0.958,0.042,0.035,-0.35,0.946,0.036,0.099,,,,0.04,-0.53,0.946,0.048,0.052,,,
04222,20111006,-122.61,40.65,0.069,0.13,0.804,0.19,0.066,-0.28,0.798,0.19,0.064,-0.44,0.815,0.185,0.052,0.2,0.81,0.179,0.131,,,,0.067,-0.12,0.804,0.19,0.076,,,
04222,20111007,-122.61,40.65,0.101,0.77,0.661,0.333,0.092,0.02,0.661,0.333,0.089,0.13,0.673,0.327,0.076,0.95,0.673,0.321,0.161,,,,0.097,0.32,0.661,0.333,0.104,,,
04222,20111008,-122.61,40.65,0.126,1.31,0.518,0.476,0.114,0.26,0.518,0.476,0.11,0.61,0.53,0.47,0.096,1.55,0.53,0.464,0.184,,,,0.12,0.68,0.518,0.476,0.126,,,
04222,20111009,-122.61,40.65,0.15,1.78,0.375,0.619,0.133,0.47,0.375,0.619,0.129,1.03,0.387,0.613,0.114,2.09,0.387,0.607,0.203,,,,0.141,1,0.375,0.619,0.146,,,
04222,20111010,-122.61,40.65,0.171,2.21,0.232,0.762,0.15,0.66,0.232,0.762,0.147,1.4,0.244,0.756,0.13,2.58,0.244,0.75,0.22,,,,0.161,1.3,0.232,0.762,0.164,,,
04222,20111011,-122.61,40.65,0.202,2.79,0.089,0.905,0.177,0.95,0.089,0.905,0.173,1.87,0.101,0.899,0.159,3.38,0.101,0.893,0.246,,,,0.189,1.74,0.089,0.905,0.191,,,
04222,20111012,-122.61,40.65,0.216,3.01,0,1,0.188,1.08,0,1,0.19,2.13,0,1,0.175,3.8,0,1,0.261,,,,0.202,1.94,0,1,0.206,,,
04222,20111013,-122.61,40.65,0.208,2.79,0,1,0.184,1.04,0,1,0.192,2.04,0,1,0.177,3.78,0,1,0.248,1.66,0,1,0.196,1.86,0,1,0.202,,,
04222,20111014,-122.61,40.65,0.199,2.52,0,1,0.176,0.95,0,1,0.187,1.82,0,1,0.171,3.5,0,1,0.235,1.5,0,1,0.187,1.71,0,1,0.193,,,
04222,20111015,-122.61,40.65,0.193,2.34,0,1,0.171,0.9,0,1,0.185,1.67,0,1,0.169,3.34,0,1,0.228,1.41,0,1,0.182,1.63,0,1,0.189,1.29,0,1
04222,20111016,-122.61,40.65,0.19,2.2,0,1,0.168,0.87,0,1,0.183,1.57,0,1,0.168,3.19,0,1,0.225,1.32,0,1,0.179,1.58,0,1,0.187,1.22,0,1
04222,20111017,-122.61,40.65,0.188,2.09,0,1,0.166,0.86,0,1,0.183,1.52,0,1,0.168,3.08,0,1,0.223,1.25,0,1,0.177,1.56,0,1,0.186,1.16,0,1
04222,20111018,-122.61,40.65,0.177,1.81,0,1,0.154,0.73,0,1,0.174,1.35,0,1,0.155,2.63,0,1,0.212,1.17,0,1,0.165,1.38,0,1,0.174,1.1,0,1
04222,20111019,-122.61,40.65,0.168,1.59,0,1,0.146,0.64,0,0.994,0.167,1.23,0,1,0.149,2.37,0,1,0.204,1.1,0,1,0.157,1.25,0,1,0.167,1.04,0,1
04222,20111020,-122.61,40.65,0.161,1.42,0,1,0.139,0.56,0,0.911,0.161,1.15,0,1,0.143,2.14,0,1,0.198,1.04,0,0.99,0.15,1.15,0,1,0.161,0.98,0,1
04222,20111021,-122.61,40.65,0.156,1.28,0,1,0.134,0.48,0,0.768,0.157,1.07,0,1,0.138,1.95,0,1,0.193,0.98,0,0.888,0.145,1.07,0,1,0.156,0.93,0,1
04222,20111022,-122.61,40.65,0.151,1.17,0,1,0.129,0.42,0,0.625,0.153,1.01,0,1,0.134,1.79,0,1,0.189,0.9,0,0.759,0.14,1,0,1,0.151,0.88,0,0.954
04222,20111023,-122.61,40.65,0.147,1.08,0,1,0.125,0.36,0,0.482,0.149,0.96,0,1,0.13,1.67,0,1,0.185,0.84,0,0.623,0.136,0.94,0,1,0.147,0.83,0,0.925
04222,20111024,-122.61,40.65,0.143,1,0,1,0.121,0.31,0,0.339,0.146,0.9,0,1,0.127,1.56,0,1,0.181,0.78,0,0.503,0.132,0.87,0,1,0.144,0.78,0,0.87
04222,20111025,-122.61,40.65,0.139,0.93,0,1,0.118,0.25,0,0.196,0.143,0.86,0,1,0.124,1.46,0,1,0.178,0.71,0,0.369,0.128,0.79,0,1,0.14,0.73,0,0.808
04222,20111026,-122.61,40.65,0.135,0.85,0,1,0.115,0.2,0,0.06,0.14,0.81,0,1,0.12,1.37,0,1,0.174,0.64,0,0.226,0.125,0.71,0,1,0.137,0.67,0,0.792
04222,20111027,-122.61,40.65,0.132,0.77,0,1,0.112,0.16,0,0,0.137,0.76,0,1,0.117,1.3,0,1,0.171,0.58,0,0.089,0.122,0.63,0,0.911,0.134,0.63,0,0.732
04222,20111028,-122.61,40.65,0.129,0.7,0,1,0.109,0.11,0,0,0.134,0.72,0,1,0.114,1.23,0,1,0.167,0.53,0,0.024,0.119,0.55,0,0.768,0.131,0.59,0,0.69
04222,20111029,-122.61,40.65,0.126,0.63,0,1,0.106,0.06,0,0,0.132,0.67,0,1,0.112,1.16,0,1,0.164,0.49,0,0,0.116,0.47,0,0.625,0.128,0.54,0,0.655
04222,20111030,-122.61,40.65,0.123,0.57,0,1,0.104,0.02,0,0,0.129,0.61,0,0.994,0.109,1.09,0,1,0.161,0.45,0,0,0.113,0.39,0,0.482,0.125,0.5,0,0.56
04222,20111031,-122.61,40.65,0.121,0.51,0,0.994,0.101,-0.02,0,0,0.127,0.56,0,0.964,0.106,1.03,0,1,0.157,0.41,0,0,0.111,0.33,0,0.339,0.123,0.46,0,0.476
04222,20111101,-122.61,40.65,0.119,0.47,0,0.97,0.099,-0.06,0,0,0.125,0.52,0,0.899,0.104,0.98,0,1,0.154,0.38,0,0,0.109,0.27,0,0.196,0.12,0.41,0,0.399
04222,20111102,-122.61,40.65,0.117,0.43,0,0.905,0.097,-0.09,0,0,0.122,0.47,0,0.798,0.101,0.93,0,1,0.151,0.35,0,0,0.107,0.21,0,0.054,0.118,0.36,0,0.274
04222,20111103,-122.61,40.65,0.115,0.39,0,0.798,0.095,-0.13,0,0,0.12,0.42,0,0.679,0.099,0.89,0,1,0.148,0.31,0,0,0.105,0.16,0,0,0.115,0.31,0,0.19
04222,20111104,-122.61,40.65,0.112,0.35,0,0.655,0.093,-0.17,0.006,0,0.118,0.37,0,0.536,0.097,0.84,0,1,0.146,0.27,0,0,0.103,0.1,0,0,0.113,0.25,0,0.089
04222,20111105,-122.61,40.65,0.11,0.3,0,0.512,0.091,-0.22,0.083,0,0.116,0.32,0,0.393,0.094,0.79,0,1,0.143,0.24,0,0,0.1,0.05,0,0,0.111,0.19,0,0.018
04222,20111106,-122.61,40.65,0.111,0.3,0,0.423,0.092,-0.21,0.167,0.048,0.114,0.29,0,0.256,0.092,0.73,0,1,0.141,0.2,0,0,0.101,0.05,0,0.048,0.11,0.14,0,0.006
04222,20111107,-122.61,40.65,0.117,0.33,0,0.429,0.095,-0.16,0.167,0.089,0.114,0.26,0,0.143,0.091,0.67,0,1,0.139,0.16,0,0,0.106,0.09,0,0.19,0.111,0.11,0,0.006
04222,20111108,-122.61,40.65,0.121,0.34,0,0.44,0.097,-0.14,0.167,0.089,0.114,0.23,0,0.065,0.09,0.61,0,1,0.137,0.12,0,0,0.109,0.11,0,0.214,0.112,0.07,0,0.006
04222,20111109,-122.61,40.65,0.124,0.34,0,0.387,0.099,-0.12,0.167,0.089,0.114,0.19,0,0.024,0.088,0.54,0,0.935,0.135,0.08,0,0,0.112,0.12,0,0.214,0.112,0.04,0,0.006
04222,20111110,-122.61,40.65,0.127,0.34,0,0.351,0.101,-0.1,0.167,0.089,0.114,0.15,0,0,0.087,0.46,0,0.798,0.133,0.03,0,0,0.114,0.14,0,0.214,0.112,0.01,0,0.006
04222,20111111,-122.61,40.65,0.131,0.33,0,0.351,0.102,-0.08,0.161,0.089,0.114,0.11,0,0,0.087,0.37,0,0.655,0.132,-0.01,0,0,0.117,0.17,0,0.214,0.113,-0.01,0,0.006
04222,20111112,-122.61,40.65,0.134,0.33,0,0.351,0.104,-0.05,0.083,0.089,0.114,0.08,0,0,0.086,0.29,0,0.512,0.131,-0.05,0,0,0.119,0.19,0,0.214,0.114,-0.04,0,0.006
04222,20111113,-122.61,40.65,0.134,0.29,0,0.298,0.103,-0.08,0,0.042,0.113,0.04,0,0,0.085,0.21,0,0.369,0.129,-0.09,0,0,0.118,0.17,0,0.167,0.113,-0.07,0,0
04222,20111114,-122.61,40.65,0.129,0.2,0,0.155,0.099,-0.15,0,0,0.112,-0.01,0,0,0.084,0.14,0,0.226,0.128,-0.13,0,0,0.114,0.1,0,0.024,0.11,-0.12,0,0
04222,20111115,-122.61,40.65,0.125,0.14,0,0.024,0.097,-0.19,0.006,0,0.11,-0.05,0,0,0.083,0.08,0,0.083,0.127,-0.17,0.024,0,0.111,0.06,0,0,0.108,-0.16,0,0
04222,20111116,-122.61,40.65,0.123,0.09,0,0,0.095,-0.22,0.024,0,0.109,-0.08,0,0,0.082,0.02,0,0.006,0.126,-0.22,0.161,0,0.109,0.02,0,0,0.107,-0.2,0.012,0
04222,20111117,-122.61,40.65,0.12,0.04,0,0,0.093,-0.24,0.042,0,0.108,-0.11,0,0,0.081,-0.03,0,0,0.125,-0.26,0.304,0,0.107,-0.01,0,0,0.106,-0.24,0.077,0
04222,20111118,-122.61,40.65,0.118,-0.01,0,0,0.092,-0.26,0.137,0,0.107,-0.14,0,0,0.081,-0.05,0,0,0.124,-0.31,0.446,0,0.105,-0.06,0.024,0,0.104,-0.28,0.22,0
04222,20111119,-122.61,40.65,0.116,-0.07,0,0,0.09,-0.28,0.262,0,0.106,-0.17,0.054,0,0.08,-0.08,0,0,0.123,-0.36,0.589,0,0.103,-0.11,0.113,0,0.103,-0.33,0.363,0
04222,20111120,-122.61,40.65,0.115,-0.12,0.083,0.012,0.09,-0.3,0.375,0,0.106,-0.21,0.173,0,0.08,-0.11,0,0,0.124,-0.39,0.714,0,0.103,-0.16,0.226,0,0.103,-0.37,0.482,0
04222,20111121,-122.61,40.65,0.125,-0.08,0.083,0.054,0.098,-0.25,0.375,0,0.11,-0.22,0.173,0,0.082,-0.1,0,0,0.13,-0.39,0.756,0,0.111,-0.13,0.226,0.006,0.109,-0.36,0.482,0
04222,20111122,-122.61,40.65,0.134,-0.05,0.083,0.071,0.104,-0.22,0.369,0,0.114,-0.23,0.173,0,0.084,-0.11,0,0,0.132,-0.41,0.875,0,0.119,-0.12,0.226,0.006,0.113,-0.36,0.482,0
04222,20111123,-122.61,40.65,0.147,0.01,0.083,0.131,0.112,-0.18,0.351,0,0.119,-0.24,0.173,0,0.086,-0.12,0,0,0.134,-0.43,0.881,0,0.13,-0.09,0.226,0.006,0.12,-0.35,0.47,0
04222,20111124,-122.61,40.65,0.162,0.1,0.083,0.196,0.125,-0.12,0.333,0.054,0.133,-0.16,0.173,0.06,0.104,0.06,0,0.06,0.148,-0.35,0.815,0.06,0.143,-0.03,0.226,0.065,0.134,-0.24,0.405,0.06
04222,20111125,-122.61,40.65,0.177,0.19,0.083,0.339,0.14,-0.04,0.238,0.065,0.148,-0.07,0.173,0.143,0.13,0.33,0,0.202,0.174,-0.17,0.673,0.202,0.158,0.05,0.202,0.095,0.154,-0.1,0.262,0.202
04222,20111126,-122.61,40.65,0.191,0.27,0.083,0.375,0.153,0.02,0.113,0.065,0.161,-0.01,0.119,0.143,0.144,0.45,0,0.345,0.191,-0.06,0.53,0.22,0.172,0.12,0.113,0.095,0.168,0,0.119,0.214
04222,20111127,-122.61,40.65,0.201,0.33,0,0.363,0.163,0.06,0,0.065,0.173,0.06,0,0.143,0.156,0.55,0,0.488,0.206,0.04,0.405,0.22,0.182,0.17,0,0.095,0.18,0.09,0,0.214
04222,20111128,-122.61,40.65,0.2,0.3,0,0.321,0.165,0.04,0,0.065,0.18,0.07,0,0.143,0.165,0.63,0,0.631,0.215,0.09,0.363,0.22,0.183,0.14,0,0.089,0.185,0.11,0,0.214
04222,20111129,-122.61,40.65,0.2,0.28,0,0.304,0.168,0.03,0,0.065,0.186,0.09,0,0.143,0.173,0.7,0,0.774,0.227,0.16,0.22,0.22,0.184,0.12,0,0.089,0.191,0.14,0,0.214
04222,20111130,-122.61,40.65,0.195,0.22,0,0.244,0.168,0,0,0.065,0.191,0.09,0,0.143,0.181,0.76,0,0.827,0.238,0.23,0.077,0.22,0.182,0.06,0,0.089,0.195,0.14,0,0.214
04222,20111201,-122.61,40.65,0.187,0.12,0,0.179,0.163,-0.06,0.077,0.012,0.186,0.01,0.018,0.083,0.172,0.63,0,0.768,0.236,0.2,0,0.161,0.175,-0.03,0.107,0.03,0.189,0.06,0.077,0.155
04222,20111202,-122.61,40.65,0.178,0.01,0.024,0.036,0.156,-0.14,0.22,0,0.179,-0.09,0.131,0,0.156,0.41,0,0.625,0.222,0.07,0,0.018,0.167,-0.13,0.25,0,0.178,-0.08,0.22,0.012
04222,20111203,-122.61,40.65,0.17,-0.09,0.161,0,0.15,-0.22,0.363,0,0.173,-0.18,0.274,0,0.151,0.33,0,0.482,0.216,0,0,0,0.16,-0.24,0.393,0,0.172,-0.17,0.363,0
04222,20111204,-122.61,40.65,0.163,-0.19,0.304,0,0.144,-0.3,0.506,0,0.169,-0.26,0.417,0,0.147,0.25,0,0.339,0.21,-0.06,0,0,0.154,-0.33,0.536,0,0.166,-0.25,0.506,0
04222,20111205,-122.61,40.65,0.157,-0.27,0.446,0,0.139,-0.38,0.649,0,0.164,-0.34,0.56,0,0.143,0.17,0,0.196,0.205,-0.12,0.089,0,0.148,-0.43,0.679,0,0.162,-0.33,0.649,0
04222,20111206,-122.61,40.65,0.152,-0.36,0.589,0,0.134,-0.45,0.792,0,0.16,-0.42,0.702,0,0.14,0.1,0,0.054,0.2,-0.18,0.22,0,0.143,-0.52,0.821,0,0.157,-0.41,0.792,0
04222,20111207,-122.61,40.65,0.147,-0.43,0.732,0,0.13,-0.52,0.935,0,0.156,-0.49,0.845,0,0.136,0.03,0,0,0.196,-0.22,0.357,0,0.138,-0.6,0.964,0,0.153,-0.47,0.935,0
04222,20111208,-122.61,40.65,0.143,-0.48,0.875,0,0.127,-0.58,1,0,0.152,-0.57,0.97,0,0.133,-0.04,0,0,0.192,-0.25,0.494,0,0.135,-0.67,1,0,0.15,-0.52,1,0
04222,20111209,-122.61,40.65,0.14,-0.52,0.994,0,0.124,-0.62,1,0,0.149,-0.63,1,0,0.13,-0.09,0,0,0.189,-0.27,0.635,0,0.132,-0.72,1,0,0.147,-0.56,1,0
04222,20111210,-122.61,40.65,0.138,-0.55,1,0,0.121,-0.66,1,0,0.146,-0.69,1,0,0.128,-0.14,0,0,0.186,-0.29,0.76,0,0.129,-0.76,1,0,0.144,-0.59,1,0
04222,20111211,-122.61,40.65,0.136,-0.58,1,0,0.119,-0.69,1,0,0.144,-0.75,1,0,0.126,-0.17,0,0,0.184,-0.3,0.838,0,0.127,-0.79,1,0,0.141,-0.61,1,0
04222,20111212,-122.61,40.65,0.134,-0.6,1,0,0.116,-0.73,1,0,0.142,-0.79,1,0,0.123,-0.2,0,0,0.181,-0.31,0.808,0,0.125,-0.82,1,0,0.139,-0.62,1,0
04222,20111213,-122.61,40.65,0.132,-0.62,1,0,0.115,-0.76,1,0,0.14,-0.84,1,0,0.121,-0.22,0,0,0.179,-0.31,0.802,0,0.123,-0.84,1,0,0.137,-0.63,1,0
04222,20111214,-122.61,40.65,0.13,-0.64,1,0,0.113,-0.79,1,0,0.138,-0.88,1,0,0.12,-0.24,0,0,0.176,-0.32,0.808,0,0.121,-0.87,1,0,0.135,-0.64,1,0
04222,20111215,-122.61,40.65,0.128,-0.66,1,0,0.111,-0.82,1,0,0.136,-0.91,1,0,0.118,-0.26,0,0,0.174,-0.32,0.814,0,0.12,-0.9,1,0,0.134,-0.65,1,0
04222,20111216,-122.61,40.65,0.127,-0.67,1,0,0.11,-0.84,1,0,0.134,-0.94,1,0,0.116,-0.27,0,0,0.172,-0.33,0.815,0,0.119,-0.93,1,0,0.132,-0.67,1,0
04222,20111217,-122.61,40.65,0.127,-0.68,1,0,0.109,-0.87,1,0,0.133,-0.97,1,0,0.115,-0.29,0,0,0.17,-0.35,0.833,0,0.118,-0.96,1,0,0.131,-0.68,1,0
04222,20111218,-122.61,40.65,0.126,-0.69,1,0,0.108,-0.89,1,0,0.132,-1,1,0,0.113,-0.3,0,0,0.168,-0.37,0.899,0,0.117,-0.98,1,0,0.129,-0.7,1,0
04222,20111219,-122.61,40.65,0.126,-0.7,1,0,0.107,-0.91,1,0,0.131,-1.02,1,0,0.112,-0.32,0,0,0.166,-0.39,0.982,0,0.116,-1.01,1,0,0.128,-0.72,1,0
04222,20111220,-122.61,40.65,0.125,-0.7,1,0,0.106,-0.93,1,0,0.13,-1.03,1,0,0.11,-0.33,0,0,0.165,-0.41,1,0,0.116,-1.03,1,0,0.127,-0.73,1,0
04222,20111221,-122.61,40.65,0.125,-0.7,1,0,0.106,-0.94,1,0,0.129,-1.04,1,0,0.109,-0.35,0,0,0.163,-0.43,1,0,0.115,-1.04,1,0,0.126,-0.74,1,0
04222,20111222,-122.61,40.65,0.125,-0.7,1,0,0.105,-0.94,1,0,0.128,-1.04,1,0,0.108,-0.37,0.036,0,0.162,-0.45,1,0,0.115,-1.05,1,0,0.125,-0.75,1,0
04222,20111223,-122.61,40.65,0.124,-0.7,1,0,0.104,-0.95,1,0,0.127,-1.04,1,0,0.107,-0.4,0.167,0,0.16,-0.48,1,0,0.114,-1.05,1,0,0.124,-0.75,1,0
04222,20111224,-122.61,40.65,0.122,-0.7,1,0,0.103,-0.96,1,0,0.126,-1.05,1,0,0.106,-0.43,0.31,0,0.159,-0.5,1,0,0.113,-1.05,1,0,0.123,-0.76,1,0
04222,20111225,-122.61,40.65,0.121,-0.71,1,0,0.102,-0.96,1,0,0.125,-1.06,1,0,0.105,-0.45,0.452,0,0.157,-0.52,1,0,0.111,-1.04,1,0,0.122,-0.76,1,0